Zurück zum Katalog

FENGYUN 1C DEB

LostSSO
NORAD 36156·DEBRIS·🇨🇳 China

Gestartet May 10, 1999 von Taiyuan Satellite Launch Center

Loading…

Nächste Überflüge (nächste 24 Stunden)

TLE

VeraltetSource: Space-Track

Epoche: Sep 22, 2022, 11:19 UTC

1 36156U 99025DSD 22265.47173818  .00003086  00000-0  11556-2 0  9999
2 36156  98.7257 353.3993 0046446 297.5882 120.7293 14.31876868721423

Verfolge FENGYUN 1C DEB in Echtzeit mit AllMySat

Download on the App Store